Millington, TN

4:17 PM CDT on March 26, 2017 (GMT -0500)
Millington Municipal

Weather History for KNQA - May, 2014

Change the Weather History Date:

Saturday, May 10, 2014

  Actual Average Record
Temperature  
Mean Temperature 74 °F -  
Max Temperature 84 °F 78 °F 89 °F (2011)
Min Temperature 64 °F 60 °F 51 °F (2012)
Cooling Degree Days 9    
Growing Degree Days 24 (Base 50)    
Moisture  
Dew Point 65 °F    
Average Humidity 79    
Maximum Humidity 100    
Minimum Humidity 54    
Precipitation  
Precipitation 0.00 in - - ()
Sea Level Pressure  
Sea Level Pressure 29.95 in    
Wind  
Wind Speed 5 mph (SSE)    
Max Wind Speed 9 mph    
Max Gust Speed -    
Visibility 10 miles    
Events      
Averages and records for this station are not official NWS values.
T = Trace of Precipitation, MM = Missing Value Source: NWS Daily Summary

Daily Weather History Graph

Daily Weather History Graph

Search for Another Location

Airport or City:

Trip Planner

Search our weather history database for the weather conditions in past years. The results will help you decide how hot, cold, wet, or windy it might be!

Date:

Astronomy

May. 10, 2014 Rise Set
Actual Time 5:59 AM CDT 7:53 PM CDT
Civil Twilight 5:31 AM CDT 8:20 PM CDT
Nautical Twilight 4:57 AM CDT 8:54 PM CDT
Astronomical Twilight 4:21 AM CDT 9:30 PM CDT
Moon 3:57 PM CDT (5/10) 3:22 AM CDT (5/10)
Length of Visible Light 14h 49m
Length of Day
13h 53m
Waxing Gibbous, 82% of the Moon is Illuminated
May 10
Waxing Gibbous
May 14
Full
May 21
Last Quarter
May 28
New
Jun 5
First Quarter

Hourly Weather History & Observations

Time (CDT) Temp. Heat Index Dew Point Humidity Pressure Visibility Wind Dir Wind Speed Gust Speed Precip Events Conditions
12:50 AM 69.8 °F - 64.4 °F 83% 29.96 in 10.0 mi Variable 5.8 mph - N/A   Mostly Cloudy
1:50 AM 69.8 °F - 64.4 °F 83% 29.94 in 10.0 mi South 6.9 mph - N/A   Overcast
2:15 AM 69.8 °F - 64.4 °F 83% 29.95 in 10.0 mi SSE 5.8 mph - N/A   Overcast
2:35 AM 68.0 °F - 64.4 °F 88% 29.94 in 10.0 mi SSE 6.9 mph - N/A   Overcast
2:55 AM 68.0 °F - 64.4 °F 88% 29.93 in 10.0 mi SSE 8.1 mph - N/A   Overcast
3:15 AM 68.0 °F - 64.4 °F 88% 29.93 in 10.0 mi SE 5.8 mph - N/A   Overcast
3:35 AM 66.2 °F - 64.4 °F 94% 29.93 in 10.0 mi SSE 3.5 mph - N/A   Mostly Cloudy
3:55 AM 66.2 °F - 64.4 °F 94% 29.93 in 10.0 mi Calm Calm - N/A   Clear
4:15 AM 66.2 °F - 64.4 °F 94% 29.93 in 10.0 mi SE 3.5 mph - N/A   Clear
4:35 AM 64.4 °F - 64.4 °F 100% 29.93 in 10.0 mi Calm Calm - N/A   Partly Cloudy
4:55 AM 64.4 °F - 62.6 °F 94% 29.92 in 10.0 mi Calm Calm - N/A   Clear
5:30 AM 64.4 °F - 62.6 °F 94% 29.93 in 10.0 mi Calm Calm - N/A   Mostly Cloudy
6:55 AM 64.4 °F - 64.4 °F 100% 29.97 in 10.0 mi SSE 4.6 mph - N/A   Scattered Clouds
7:55 AM 66.2 °F - 64.4 °F 94% 30.00 in 10.0 mi SSE 6.9 mph - N/A   Overcast
8:55 AM 69.8 °F - 64.4 °F 83% 30.00 in 10.0 mi Variable 4.6 mph - N/A   Mostly Cloudy
10:55 AM 78.8 °F - 69.8 °F 74% 29.99 in 10.0 mi SSW 8.1 mph - N/A   Mostly Cloudy
11:55 AM 82.4 °F 84.6 °F 66.2 °F 58% 29.99 in 10.0 mi SSW 9.2 mph - N/A   Mostly Cloudy
12:55 PM 84.2 °F 86.6 °F 66.2 °F 55% 29.97 in 10.0 mi SSW 8.1 mph - N/A   Scattered Clouds
1:50 PM 82.4 °F 83.9 °F 64.4 °F 54% 29.96 in 10.0 mi South 8.1 mph - N/A   Scattered Clouds
2:50 PM 84.2 °F 86.6 °F 66.2 °F 55% 29.94 in 10.0 mi SSE 5.8 mph - N/A   Scattered Clouds
3:50 PM 84.2 °F 86.6 °F 66.2 °F 55% 29.93 in 10.0 mi SW 8.1 mph - N/A   Scattered Clouds
4:50 PM 82.4 °F 84.6 °F 66.2 °F 58% 29.93 in 10.0 mi SSE 5.8 mph - N/A   Scattered Clouds
5:50 PM 82.4 °F 84.6 °F 66.2 °F 58% 29.92 in 10.0 mi SSE 5.8 mph - N/A   Scattered Clouds
6:50 PM 82.4 °F 84.6 °F 66.2 °F 58% 29.91 in 10.0 mi SE 5.8 mph - N/A   Mostly Cloudy